Location: ??????
(38.3184°N, 23.6932°E)
Time: 00:58:47
(UTC+00:00)

Okean-O - Pass Details

Date: 16 October 2021
Orbit: 639 x 640 km, 98.2° (Epoch: 04 December)

Event Time Altitude Azimuth Distance (km) Brightness Sun altitude
Exits shadow 18:07:42 50° 258° (WSW) 814 3.4 -28.5°
Maximum altitude 18:07:44 50° 260° (W) 814 3.4 -28.5°
Drops below altitude 10° 18:12:03 10° 336° (NNW) 2,039 5.6 -29.3°
Sets 18:14:19 0° 342° (NNW) 2,952 6.4 -29.8°
